This demonstration page uses our WeatherBlox Daily Observations layout. Learn more.

Left ArrowRight Arrow

41.12389, -100.76542

Hourly Observations for July 25, 2018

Temp ( °F °C ) Dew Point ( °F °C ) Humidity (%) Winds ( mph kmh ) Pressure ( in mb ) Visibility ( mi km ) Precip ( " mm )
12:53 am 00:53 Clear 65 18.3 61 16.1 87 87 SSE 7 11 30.06 1018 10 16 0.00 0.00
1:53 am 01:53 Clear 68 20 60 15.6 76 76 SSE 9 15 30.05 1018 10 16 0.00 0.00
2:53 am 02:53 Clear 70 21.1 58 14.4 66 66 SSE 8 13 30.04 1017 10 16 0.00 0.00
3:53 am 03:53 Clear 69 20.6 58 14.4 68 68 SSE 6 9 30.02 1017 10 16 0.00 0.00
4:53 am 04:53 Clear 67 19.4 58 14.4 73 73 ESE 7 11 30.05 1018 10 16 0.00 0.00
5:53 am 05:53 Clear 69 20.6 60 15.6 73 73 ENE 13 20 30.06 1018 10 16 0.00 0.00
6:53 am 06:53 Sunny 69 20.6 63 17.2 81 81 E 13 20 30.04 1017 10 16 0.00 0.00
7:53 am 07:53 Sunny 67 19.4 64 17.8 91 91 SE 9 15 30.07 1018 10 16 0.00 0.00
8:21 am 08:21 Mostly Cloudy with Thunderstorms 67 19.4 64 17.8 91 91 VRB 3 6 30.09 1019 10 16 0.00 0.00
8:34 am 08:34 Cloudy with Strong Thunderstorms 66 18.9 64 17.8 93 93 N 10 17 30.09 1019 2 3 0.06 1.52
8:43 am 08:43 Cloudy with Thunderstorms 66 18.9 65 18.3 96 96 NE 6 9 30.09 1019 3 5 0.15 3.81
8:53 am 08:53 Cloudy with Nearby Thunderstorms 66 18.9 65 18.3 96 96 NE 10 17 30.14 1021 6 10 0.16 4.06
9:16 am 09:16 Mostly Cloudy with Light Rain 66 18.9 66 18.9 100 100 ENE 12 19 30.06 1018 10 16 0.01 0.25
9:53 am 09:53 Mostly Sunny 67 19.4 66 18.9 97 97 NNE 10 17 30.14 1021 10 16 0.01 0.25
10:03 am 10:03 Partly Cloudy with Nearby Thunderstorms 67 19.4 66 18.9 97 97 ENE 6 9 30.09 1019 10 16 0.00 0.03
10:26 am 10:26 Cloudy with Thunderstorms 66 18.9 66 18.9 100 100 SSE 10 17 30.06 1018 10 16 0.01 0.25
10:41 am 10:41 Mostly Cloudy with Light Rain 67 19.4 66 18.9 97 97 SSE 13 20 30.03 1017 10 16 0.02 0.51
10:53 am 10:53 Mostly Cloudy with Light Rain 67 19.4 67 19.4 100 100 ESE 7 11 30.06 1018 10 16 0.02 0.51
11:28 am 11:28 Cloudy with Light Rain 68 20 67 19.4 96 96 S 12 19 30.00 1016 10 16 0.01 0.25
11:53 am 11:53 Mostly Sunny 71 21.7 67 19.4 87 87 ESE 8 13 30.03 1017 10 16 0.01 0.25
12:53 pm 12:53 Sunny 78 25.6 69 20.6 74 74 WNW 6 9 30.03 1017 10 16 0.00 0.00
1:53 pm 13:53 Sunny 82 27.8 71 21.7 69 69 W 12 19 30.04 1017 10 16 0.00 0.00
2:53 pm 14:53 Sunny 83 28.3 70 21.1 65 65 W 13 20 30.03 1017 10 16 0.00 0.00
3:53 pm 15:53 Sunny 87 30.6 71 21.7 59 59 NNW 8 13 30.02 1017 10 16 0.00 0.00
4:53 pm 16:53 Mostly Sunny 86 30 69 20.6 57 57 NE 13 20 30.01 1016 10 16 0.00 0.00
5:53 pm 17:53 Sunny 86 30 67 19.4 53 53 ENE 12 19 30.00 1016 10 16 0.00 0.00
6:53 pm 18:53 Sunny 83 28.3 67 19.4 59 59 ENE 15 24 30.02 1017 10 16 0.00 0.00
7:53 pm 19:53 Sunny 79 26.1 69 20.6 72 72 ENE 7 11 30.05 1018 10 16 0.00 0.00
8:53 pm 20:53 Mostly Cloudy 78 25.6 67 19.4 69 69 NE 12 19 30.08 1019 10 16 0.00 0.00
9:53 pm 21:53 Mostly Cloudy 75 23.9 65 18.3 71 71 ENE 10 17 30.09 1019 10 16 0.00 0.00
10:53 pm 22:53 Mostly Cloudy 74 23.3 64 17.8 71 71 ENE 8 13 30.11 1020 10 16 0.00 0.00
11:53 pm 23:53 Clear 71 21.7 64 17.8 79 79 ENE 8 13 30.10 1019 10 16 0.00 0.00

Powered by AerisWeather